[[{"header":{"parameterUnit":"m.s-1","parameterCategory":1,"la1":30.2991,"la2":30.254,"lo1":-89.0895,"lo2":-89.0444,"dy":0.0017,"dx":0.0017,"nx":28,"ny":28,"refTime":"2024-05-29T03:00:00:Z","depth":0,"parameterNumber":2,"parameterNumberName":"U-component_of_WINDS"},"data":[0,0,0,0,0,0,0,0,0,0,0,0,0,0,0,0,0,0,0,0,0,0,0,0,0,0,0,0,0,0,0,0,0,0,0,0,0,0,0,0,0,0,0,0,0,0,0,0,0,0,0,0,0,0,0,0,0,0,-1.2082,-1.2083,0,-1.2122,-1.2122,-1.2122,-1.214,-1.214,-1.214,-1.214,-1.218,-1.2181,-1.2182,0,0,0,0,0,0,0,0,0,0,0,0,0,-1.2022,-1.2023,-1.2082,-1.2083,-1.2083,-1.2122,-1.2122,-1.2123,-1.214,-1.214,-1.214,-1.214,-1.2179,-1.218,-1.2182,0,0,0,0,0,0,0,0,0,0,0,0,0,-1.2053,-1.2023,-1.2082,-1.2097,-1.2098,-1.2121,-1.2122,-1.2123,-1.214,-1.214,-1.214,-1.214,-1.2179,-1.218,-1.2182,-1.2193,0,0,-1.2187,-1.2188,0,0,0,0,0,0,0,0,-1.2051,-1.2055,-1.2094,-1.2096,-1.2098,-1.2126,-1.2115,-1.2146,-1.214,-1.2124,-1.214,-1.214,-1.2162,-1.2165,-1.2172,-1.2195,-1.2197,-1.2187,-1.2188,-1.2189,-1.2189,0,0,0,0,0,0,0,-1.2049,-1.2054,-1.2098,-1.2095,-1.2097,-1.2101,-1.2105,-1.2121,-1.2143,-1.2126,-1.2127,-1.2132,-1.2163,-1.2171,-1.2173,-1.2197,-1.2187,-1.2188,-1.2189,-1.219,-1.2231,-1.2231,0,0,0,0,0,0,-1.2045,-1.2052,-1.2097,-1.2099,-1.2074,-1.2102,-1.2107,-1.2117,-1.2143,-1.2147,-1.2132,-1.2132,-1.2168,-1.2171,-1.2175,-1.219,-1.2189,-1.219,-1.2191,-1.2231,-1.2231,-1.2231,0,0,0,0,0,0,-1.2043,-1.2049,-1.2095,-1.2076,-1.2082,-1.2103,-1.2114,-1.2118,-1.2126,-1.2147,-1.2151,-1.2136,-1.2168,-1.2172,-1.2188,-1.2191,-1.2191,-1.2192,-1.2231,-1.2231,-1.2231,-1.2219,0,0,0,0,0,0,-1.2042,-1.2048,-1.2053,-1.2076,-1.2083,-1.2108,-1.2114,-1.2119,-1.2129,-1.213,-1.2152,-1.2156,-1.2168,-1.2186,-1.219,-1.2193,-1.2194,-1.2231,-1.2231,-1.2231,-1.2219,-1.2219,-1.2219,0,0,0,0,0,-1.2039,-1.2047,-1.2053,-1.2058,-1.2089,-1.2108,-1.2113,-1.2127,-1.2129,-1.2134,-1.2147,-1.2155,-1.219,-1.2187,-1.2192,-1.2196,-1.2231,-1.2231,-1.2231,-1.222,-1.2219,-1.2219,0,0,0,0,0,0,-1.2024,-1.2051,-1.2057,-1.2073,-1.2088,-1.2111,-1.2118,-1.2126,-1.2141,-1.2141,-1.2158,-1.2163,-1.2178,-1.2189,-1.2185,-1.2208,-1.2211,-1.2212,-1.2201,-1.22,-1.22,-1.2197,-1.2195,0,0,0,0,0,-1.2022,-1.2036,-1.2059,-1.207,-1.2078,-1.2096,-1.2105,-1.2115,-1.2132,-1.2138,-1.2153,-1.2169,-1.2183,-1.2192,-1.2207,-1.2221,-1.2226,-1.2226,-1.2226,-1.2225,-1.2226,-1.2234,-1.2235,-1.2232,-1.2232,-1.2232,0,0,-1.2019,-1.2036,-1.2043,-1.2068,-1.2081,-1.2094,-1.2102,-1.2116,-1.2126,-1.214,-1.2156,-1.2168,-1.2186,-1.2201,-1.2209,-1.2211,-1.2228,-1.2225,-1.2225,-1.2226,-1.2235,-1.2235,-1.2235,-1.2232,-1.2232,-1.2232,0,0,-1.2021,-1.2034,-1.2046,-1.2059,-1.2079,-1.2091,-1.2094,-1.2116,-1.2124,-1.214,-1.2152,-1.2163,-1.2188,-1.2201,-1.221,-1.2216,-1.2224,-1.2221,-1.2218,-1.2226,-1.2226,-1.2227,-1.2229,-1.2229,-1.2221,-1.2221,-1.2221,0,-1.2014,-1.2035,-1.2051,-1.2064,-1.2074,-1.2088,-1.21,-1.2112,-1.2135,-1.2142,-1.2144,-1.2175,-1.2188,-1.2207,-1.2208,-1.2215,-1.2219,-1.2218,-1.2225,-1.2226,-1.2226,-1.2228,-1.2229,-1.2221,-1.2221,-1.2221,-1.2221,0,-1.2026,-1.2041,-1.2047,-1.207,-1.2081,-1.2093,-1.2111,-1.212,-1.2129,-1.2141,-1.2157,-1.2174,-1.2192,-1.2197,-1.2206,-1.2217,-1.2217,-1.2222,-1.2225,-1.2225,-1.2228,-1.2229,-1.222,-1.222,-1.222,-1.2221,0,0,-1.2019,-1.205,-1.2052,-1.2063,-1.2085,-1.2097,-1.2109,-1.2127,-1.2135,-1.2151,-1.2162,-1.2182,-1.2187,-1.2198,-1.2208,-1.2215,-1.2219,-1.2219,-1.2219,-1.2218,-1.2232,-1.2228,-1.2229,-1.2224,-1.2224,-1.2224,-1.223,0,-1.2024,-1.2048,-1.2062,-1.208,-1.2093,-1.2107,-1.2118,-1.2133,-1.2144,-1.2157,-1.217,-1.2184,-1.2189,-1.2196,-1.2203,-1.2217,-1.2222,-1.2216,-1.2234,-1.2235,-1.2229,-1.223,-1.2226,-1.2231,-1.2231,-1.2231,-1.2232,0,-1.2032,-1.2048,-1.2067,-1.2088,-1.2094,-1.2104,-1.2122,-1.2134,-1.2151,-1.2159,-1.2171,-1.2181,-1.2195,-1.2197,-1.2217,-1.2213,-1.2221,-1.2229,-1.2229,-1.2231,-1.2233,-1.2233,-1.2233,-1.2234,-1.2233,-1.2233,-1.2233,0,-1.2025,-1.2051,-1.2066,-1.2074,-1.2099,-1.2106,-1.2117,-1.2134,-1.2144,-1.2159,-1.2166,-1.2182,-1.2191,-1.2204,-1.2218,-1.2218,-1.2236,-1.2239,-1.2243,-1.2242,-1.2246,-1.2245,-1.2248,-1.2251,-1.2251,-1.2251,-1.2251,0,-1.2029,-1.204,-1.2063,-1.2072,-1.2085,-1.2101,-1.2114,-1.2125,-1.214,-1.2152,-1.2164,-1.2175,-1.2193,-1.2206,-1.2217,-1.2232,-1.2235,-1.2242,-1.2245,-1.2241,-1.224,-1.2247,-1.2247,-1.2251,-1.2251,-1.2251,-1.2251,0,-1.2023,-1.2039,-1.2056,-1.2078,-1.2084,-1.2093,-1.2112,-1.2121,-1.2133,-1.2148,-1.2152,-1.2171,-1.2187,-1.2202,-1.2223,-1.2231,-1.2245,-1.2249,-1.2239,-1.2241,-1.2244,-1.2243,-1.225,-1.2252,-1.2254,-1.2254,-1.2254,0,-1.2024,-1.2033,-1.2057,-1.2065,-1.2076,-1.209,-1.21,-1.2116,-1.2126,-1.2146,-1.2153,-1.217,-1.2184,-1.2208,-1.2224,-1.224,-1.2244,-1.2246,-1.2247,-1.2243,-1.2244,-1.2244,-1.2245,-1.2245,-1.2245,-1.2245,-1.2245,0,-1.2025,-1.2032,-1.2047,-1.2064,-1.2076,-1.209,-1.2104,-1.2111,-1.213,-1.214,-1.2157,-1.2167,-1.2189,-1.2205,-1.2223,-1.2234,-1.2243,-1.2245,-1.2246,-1.2242,-1.2237,-1.224,-1.2238,-1.2244,-1.2244,-1.2244,-1.2245,-1.2245,-1.2023,-1.2031,-1.2049,-1.2065,-1.2077,-1.2091,-1.2101,-1.2114,-1.2128,-1.2147,-1.2156,-1.2172,-1.2189,-1.2214,-1.2225,-1.2237,-1.224,-1.2242,-1.2243,-1.2243,-1.2242,-1.2234,-1.2241,-1.2241,-1.2241,-1.2241,-1.2241,0,-1.2024,-1.2036,-1.205,-1.207,-1.2083,-1.209,-1.2106,-1.2116,-1.213,-1.2145,-1.2159,-1.2178,-1.2194,-1.221,-1.2227,-1.2234,-1.2239,-1.2238,-1.2238,-1.224,-1.2239,-1.2236,-1.2234,-1.2234,-1.2234,-1.2234,-1.2234,-1.2234,-1.2026,-1.2041,-1.2051,-1.2072,-1.2084,-1.21,-1.2109,-1.2122,-1.2134,-1.2154,-1.2167,-1.2178,-1.2194,-1.2212,-1.2227,-1.2231,-1.2237,-1.2235,-1.2241,-1.224,-1.224,-1.2241,-1.2238,-1.2237,-1.2237,-1.2241,-1.2241,-1.2241]},{"header":{"parameterUnit":"m.s-1","parameterCategory":1,"la1":30.2991,"la2":30.254,"lo1":-89.0895,"lo2":-89.0444,"dy":0.0017,"dx":0.0017,"nx":28,"ny":28,"refTime":"2024-05-29T03:00:00:Z","depth":0,"parameterNumber":3,"parameterNumberName":"V-component_of_WINDS"},"data":[0,0,0,0,0,0,0,0,0,0,0,0,0,0,0,0,0,0,0,0,0,0,0,0,0,0,0,0,0,0,0,0,0,0,0,0,0,0,0,0,0,0,0,0,0,0,0,0,0,0,0,0,0,0,0,0,0,0,2.2461,2.246,0,2.2338,2.2337,2.2335,2.2293,2.2294,2.2294,2.2295,2.2162,2.2159,2.2155,0,0,0,0,0,0,0,0,0,0,0,0,0,2.2656,2.2652,2.2461,2.246,2.2458,2.2338,2.2336,2.2335,2.2293,2.2294,2.2294,2.2295,2.2164,2.2159,2.2154,0,0,0,0,0,0,0,0,0,0,0,0,0,2.2556,2.2651,2.2462,2.2423,2.2418,2.2338,2.2336,2.2334,2.2293,2.2294,2.2295,2.2295,2.2165,2.2159,2.2154,2.2101,0,0,2.2135,2.2133,0,0,0,0,0,0,0,0,2.2561,2.2548,2.243,2.2426,2.242,2.2332,2.2356,2.2256,2.2293,2.234,2.2295,2.2296,2.2218,2.2208,2.2182,2.2095,2.2089,2.2135,2.2131,2.2128,2.2127,0,0,0,0,0,0,0,2.2568,2.2553,2.2412,2.2429,2.2422,2.241,2.2397,2.2337,2.2276,2.2336,2.2333,2.2319,2.2215,2.2188,2.2179,2.2087,2.2135,2.213,2.2126,2.2123,2.195,2.1949,0,0,0,0,0,0,2.2582,2.256,2.2416,2.2409,2.2494,2.2406,2.2391,2.2359,2.2277,2.2265,2.2319,2.2318,2.2198,2.2186,2.2174,2.2107,2.2129,2.2123,2.2119,2.1951,2.195,2.1949,0,0,0,0,0,0,2.2587,2.257,2.2421,2.2483,2.2463,2.2402,2.2367,2.2357,2.233,2.2264,2.2252,2.2303,2.2198,2.2183,2.212,2.2102,2.212,2.2115,2.1952,2.1951,2.1949,2.1973,0,0,0,0,0,0,2.2593,2.2572,2.2552,2.2483,2.246,2.237,2.2365,2.2354,2.232,2.2318,2.2246,2.2234,2.2198,2.2129,2.2114,2.2094,2.211,2.1954,2.1952,2.195,2.1973,2.1972,2.1971,0,0,0,0,0,2.26,2.2562,2.2552,2.2534,2.2435,2.237,2.2356,2.2317,2.2319,2.2298,2.2256,2.2237,2.2107,2.2123,2.2106,2.2084,2.1955,2.1952,2.195,2.1974,2.1972,2.1971,0,0,0,0,0,0,2.2628,2.2553,2.254,2.2479,2.2432,2.2363,2.2335,2.2317,2.2265,2.2265,2.2216,2.22,2.2141,2.2106,2.2126,2.2028,2.2029,2.2024,2.2053,2.2052,2.2051,2.206,2.2105,0,0,0,0,0,2.2629,2.2584,2.2519,2.2472,2.2449,2.2396,2.2366,2.234,2.2288,2.2267,2.222,2.2168,2.2116,2.2082,2.203,2.1969,2.1952,2.1945,2.1944,2.1943,2.1938,2.1903,2.1899,2.1941,2.1941,2.1942,0,0,2.2626,2.258,2.2554,2.2476,2.2436,2.2389,2.2379,2.233,2.2294,2.2258,2.2197,2.2161,2.21,2.2038,2.2008,2.2007,2.1923,2.1941,2.1941,2.1936,2.19,2.1896,2.1893,2.194,2.194,2.194,0,0,2.2599,2.256,2.2516,2.2477,2.2418,2.2383,2.2373,2.2307,2.2282,2.222,2.2193,2.2149,2.206,2.2018,2.1984,2.1943,2.1923,2.1928,2.1922,2.1888,2.1885,2.1881,2.1866,2.1861,2.1923,2.1923,2.1923,0,2.2604,2.2534,2.2496,2.2448,2.2415,2.2383,2.2338,2.2301,2.2227,2.2204,2.2204,2.2092,2.2049,2.1976,2.1967,2.1941,2.1927,2.1935,2.1889,2.1885,2.1881,2.1866,2.1861,2.1924,2.1924,2.1924,2.1924,0,2.2542,2.2494,2.2466,2.2398,2.2361,2.2315,2.2269,2.2236,2.2214,2.2179,2.2116,2.2063,2.2,2.1981,2.1958,2.1906,2.1907,2.1899,2.1898,2.1879,2.1864,2.1858,2.1925,2.1925,2.1925,2.1924,0,0,2.2528,2.2441,2.2431,2.24,2.2333,2.2294,2.2246,2.2187,2.2159,2.2109,2.2067,2.1994,2.1986,2.1949,2.192,2.1891,2.1861,2.1886,2.1884,2.1883,2.1799,2.1805,2.1799,2.1849,2.1847,2.1846,2.1804,0,2.2491,2.2407,2.2372,2.2303,2.2258,2.2228,2.2186,2.2139,2.2106,2.2061,2.2024,2.1972,2.1966,2.1944,2.1913,2.1871,2.1844,2.1874,2.1807,2.1805,2.1822,2.1791,2.1797,2.176,2.1798,2.1797,2.1796,0,2.2437,2.2389,2.2317,2.2256,2.2235,2.2199,2.2142,2.21,2.2047,2.2024,2.1984,2.1958,2.1905,2.191,2.1836,2.1858,2.1828,2.1804,2.1801,2.1792,2.1799,2.1781,2.1747,2.1742,2.1787,2.1788,2.1788,0,2.2433,2.2351,2.2297,2.2271,2.2198,2.2173,2.2142,2.2089,2.2056,2.2006,2.1984,2.1927,2.1896,2.1853,2.1812,2.1819,2.1742,2.1743,2.172,2.1721,2.1704,2.1705,2.1664,2.1687,2.1687,2.1687,2.1687,0,2.2395,2.2352,2.2294,2.2261,2.2211,2.2171,2.2122,2.2088,2.2041,2.2,2.197,2.1931,2.188,2.1834,2.1802,2.1745,2.1732,2.1711,2.1703,2.1713,2.1716,2.1692,2.1693,2.1686,2.1686,2.1686,2.1687,0,2.2382,2.2342,2.2281,2.2218,2.2202,2.2167,2.2113,2.2079,2.2045,2.1993,2.1978,2.1924,2.1869,2.1824,2.1751,2.1729,2.167,2.1661,2.1689,2.1684,2.1664,2.1666,2.1605,2.1595,2.1626,2.1626,2.1626,0,2.236,2.2326,2.2261,2.2232,2.2201,2.2155,2.2122,2.2081,2.2047,2.1984,2.1957,2.1901,2.1853,2.1766,2.1719,2.1663,2.1652,2.1634,2.1643,2.1655,2.165,2.1653,2.1649,2.1633,2.1633,2.1633,2.1633,0,2.2325,2.2307,2.2261,2.2209,2.2171,2.2127,2.2082,2.206,2.201,2.1974,2.1918,2.1882,2.1809,2.1752,2.1692,2.1657,2.1636,2.1631,2.1622,2.1632,2.1649,2.1639,2.1685,2.1632,2.1632,2.1632,2.1632,2.1632,2.2305,2.2274,2.2224,2.2174,2.2137,2.2096,2.2061,2.2024,2.1978,2.1916,2.1895,2.1838,2.1785,2.1702,2.1667,2.1621,2.1619,2.1607,2.1603,2.1601,2.1602,2.1658,2.161,2.161,2.161,2.161,2.1609,0,2.2268,2.2235,2.219,2.213,2.209,2.2077,2.2027,2.1994,2.1945,2.1899,2.1853,2.1789,2.1735,2.1685,2.1628,2.16,2.1589,2.1586,2.1587,2.1579,2.1607,2.162,2.1596,2.1596,2.1596,2.1596,2.1596,2.1596,2.2244,2.2191,2.2168,2.2095,2.2061,2.2007,2.1979,2.1941,2.1904,2.1835,2.179,2.1759,2.1711,2.165,2.1599,2.1586,2.1565,2.1565,2.1549,2.1576,2.1577,2.1579,2.1591,2.1561,2.1561,2.1525,2.1524,2.1524]}]]